Starlink 32601

operational
NORAD ID: 61973 Int'l Des: 2024-210 Owner: SPXS Country: US Constellation: starlink
LEOCIRCULAR

关于 Starlink 32601

正在加载描述...

实时位置

正在加载3D地球...

即将过境

高度历史

Altitude vs Time

uPlot chart will show altitude changes over time

两行轨道根数

1 61973U 24210Q 25353.13102976 .00017242 00000-0 63429-3 0 9995
2 61973 42.9979 274.4293 0001032 270.0171 90.0563 15.27596210 62563
Epoch: Dec 19, 2025 • Age: 17 hours

当前状态

高度 482.2 km
速度 7.63 km/s
星下点 15.58°N, 108.65°W
发射日期 Nov 14, 2024
运行时间 1 years
类型 internet

技术详情

分类 Payload
质量 730.00 kg
干质量 700.00 kg
总质量 730.00 kg
长度 0.30 m
直径 4.10 m
跨度 29.00 m
形状 Box + pan
制造商 SPXS
平台类型 Starlink V2M
阶段状态 In Orbit
所有者/国家 SPXS/US

大型星座

Loading constellations...